SL-14 DEB, 45290

Orbit data source: Space-Track

SL-14 DEB, 45290 is space debris in LEO originally from a launch on Thu, 15 Aug 1991 UTC launched from the Plesetsk Missile And Space Complex (PKMTR). Debris objects in space refer to the collection of defunct objects orbiting the Earth. Examples of debris include non-operational satellites, rocket bodies, and fragments generated from explosions, collisions, or faulty payload assembly.

Loading next visibility...
Identifier
45290, 1991-056AC
Orbit
LEO
Country
Flag of CISCIS
Related business
Manufacturer
Unknown
Mission
Spacecraft
Bus & Motor
Unknown
Mass
Unknown
Launch date (UTC)
1991-08-15 (34 years ago)
Launch vehicle
Unknown
Launch site
Plesetsk Missile And Space Complex (PKMTR)
Object type
Payload
Rocket body
Debris
Shape & HBR
Unknown shape, 0.2 m
Radar Cross Section
Small (<0.1 m²)

Expand to show TLE details & history
Last TLE update: 16 hours ago

TLE from 16 hours ago
0 SL-14 DEB
1 45290U 91056AC  25309.16109659  .00003807  00000-0  66088-2 0  9995
2 45290  82.6279 265.3621 0109898 124.6002 236.5560 13.41171691278379
Epoch: 2025-11-05T03:51Z
TLE epoch observation values (Epoch: 2025-11-05T03:51:58.745Z)
Latitude
-0.00002°
Longitude
162.72958°
Altitude
1,153.717 km
Speed
7.254 km/s
True Right ascension
17h 41m 26s
True Declination
0° 00' 00"
Sunlit
Object was in daylight at epoch
Visualization orbit readout
Latitude
Unknown
Longitude
Unknown
Altitude
Unknown
Speed
Unknown
Apparent Right ascension
Unknown
Apparent Declination
Unknown
Sunlit
N/A
Visualization observer readout
Local Sidereal Time
15:37:05
Azimuth
Unknown
Elevation
Unknown
Doppler factor
Unknown
Orbital elements
Apogee altitude
1,184.332 km
Perigee altitude
1,019.919 km
Semi-major axis
7,480.262 km
Eccentricity
0.01099
Inclination
82.6279°
RAAN
265.3621°
Arg. of periapsis
124.6002°
True anomaly
235.51313°
Mean anomaly
236.556°
Eccentric anomaly
236.03377°
Mean motion
3.35481 °/min
Orbital period
107.31 mins
BSTAR
0.0066088
Loading maneuver chart data...
Computing Atmospheric mass density...
Loading historical data...
Loading historical data...
Loading historical data...
Loading historical data...
Loading historical data...
Loading historical data...
Loading historical data...

Documentation

Showing up to 5 results
|